29-11-2022, 00:00:10,    315,    0.0,    3.2,   0.00,   0.00, 1011.8,    0.0, -999.0
29-11-2022, 00:00:20,    315,    0.0,    3.2,   0.00,   0.00, 1011.8,    0.0, -999.0
29-11-2022, 00:00:29,    315,    0.0,    3.2,   0.00,   0.00, 1011.8,    0.1, -999.0
29-11-2022, 00:00:39,    316,    0.0,    3.3,   0.00,   0.00, 1011.8,    0.0, -999.0
29-11-2022, 00:00:50,    315,    0.0,    3.3,   0.00,   0.00, 1011.8,    0.1, -999.0
29-11-2022, 00:00:59,    315,    0.0,    3.2,   0.00,   0.00, 1011.8,    0.0, -999.0
29-11-2022, 00:01:09,    315,    0.0,    3.2,   0.00,   0.00, 1011.8,    0.0, -999.0
29-11-2022, 00:01:19,    315,    0.0,    3.3,   0.00,   0.00, 1011.8,    0.0, -999.0
29-11-2022, 00:01:30,    315,    0.0,    3.3,   0.00,   0.00, 1011.8,    0.0, -999.0
29-11-2022, 00:01:39,    315,    0.0,    3.2,   0.00,   0.00, 1011.8,    0.0, -999.0
29-11-2022, 00:01:49,    315,    0.0,    3.3,   0.00,   0.00, 1011.8,    0.0, -999.0
29-11-2022, 00:01:59,    316,    0.0,    3.3,   0.00,   0.00, 1011.8,    0.0, -999.0
29-11-2022, 00:02:09,    315,    0.0,    3.3,   0.00,   0.00, 1011.8,    0.1, -999.0
29-11-2022, 00:02:19,    315,    0.0,    3.1,   0.00,   0.00, 1011.8,    0.0, -999.0
29-11-2022, 00:02:29,    314,    0.0,    3.2,   0.00,   0.00, 1011.8,    0.1, -999.0
29-11-2022, 00:02:39,    315,    0.0,    3.3,   0.00,   0.00, 1011.8,    0.1, -999.0
29-11-2022, 00:02:49,    315,    0.0,    3.3,   0.00,   0.00, 1011.8,    0.1, -999.0
29-11-2022, 00:02:59,    315,    0.0,    3.3,   0.00,   0.00, 1011.8,    0.0, -999.0
29-11-2022, 00:03:09,    315,    0.0,    3.3,   0.00,   0.00, 1011.8,    0.0, -999.0
29-11-2022, 00:03:19,    315,    0.0,    3.2,   0.00,   0.00, 1011.8,    0.1, -999.0
29-11-2022, 00:03:29,    315,    0.0,    3.3,   0.00,   0.00, 1011.8,    0.0, -999.0
29-11-2022, 00:03:39,    315,    0.0,    3.3,   0.00,   0.00, 1011.8,    0.1, -999.0
29-11-2022, 00:03:49,    315,    0.0,    3.2,   0.00,   0.00, 1011.8,    0.0, -999.0
29-11-2022, 00:03:59,    315,    0.0,    3.3,   0.00,   0.00, 1011.8,    0.0, -999.0
29-11-2022, 00:04:09,    315,    0.0,    3.2,   0.00,   0.00, 1011.8,    0.0, -999.0
29-11-2022, 00:04:19,    317,    0.0,    3.3,   0.00,   0.00, 1011.8,    0.0, -999.0
29-11-2022, 00:04:29,    315,    0.0,    3.3,   0.00,   0.00, 1011.8,    0.2, -999.0
29-11-2022, 00:04:39,    315,    0.0,    3.2,   0.00,   0.00, 1011.8,    0.0, -999.0
29-11-2022, 00:04:49,    315,    0.0,    3.3,   0.00,   0.00, 1011.8,    0.1, -999.0
29-11-2022, 00:04:59,    315,    0.0,    3.2,   0.00,   0.00, 1011.8,    0.1, -999.0
29-11-2022, 00:05:09,    315,    0.0,    3.3,   0.00,   0.00, 1011.8,    0.0, -999.0
29-11-2022, 00:05:19,    315,    0.0,    3.3,   0.00,   0.00, 1011.8,    0.0, -999.0
29-11-2022, 00:05:29,    315,    0.0,    3.3,   0.00,   0.00, 1011.8,    0.1, -999.0
29-11-2022, 00:05:39,    315,    0.2,    3.4,   0.00,   0.00, 1011.9,    0.1, -999.0
29-11-2022, 00:05:49,    315,    0.0,    3.4,   0.00,   0.00, 1011.7,    0.0, -999.0
29-11-2022, 00:05:58,    315,    0.0,    3.4,   0.00,   0.00, 1011.8,    0.0, -999.0
29-11-2022, 00:06:09,    315,    0.0,    3.4,   0.00,   0.00, 1011.8,    0.0, -999.0
29-11-2022, 00:06:19,    316,    0.0,    3.4,   0.00,   0.00, 1011.8,    0.1, -999.0
29-11-2022, 00:06:28,    316,    0.0,    3.4,   0.00,   0.00, 1011.8,    0.0, -999.0
29-11-2022, 00:06:39,    315,    0.0,    3.4,   0.00,   0.00, 1011.8,    0.0, -999.0
29-11-2022, 00:06:49,    315,    0.0,    3.5,   0.00,   0.00, 1011.8,    0.0, -999.0
29-11-2022, 00:06:59,    315,    0.0,    3.5,   0.00,   0.00, 1011.8,    0.0, -999.0
29-11-2022, 00:07:08,    315,    0.0,    3.5,   0.00,   0.00, 1011.8,    0.0, -999.0
29-11-2022, 00:07:19,    315,    0.0,    3.4,   0.00,   0.00, 1011.8,    0.0, -999.0
29-11-2022, 00:07:29,    315,    0.0,    3.4,   0.00,   0.00, 1011.8,    0.0, -999.0
29-11-2022, 00:07:38,    315,    0.0,    3.5,   0.00,   0.00, 1011.8,    0.0, -999.0
29-11-2022, 00:07:48,    315,    0.0,    3.5,   0.00,   0.00, 1011.8,    0.1, -999.0
29-11-2022, 00:07:59,    315,    0.0,    3.5,   0.00,   0.00, 1011.8,    0.0, -999.0
29-11-2022, 00:08:08,    315,    0.0,    3.5,   0.00,   0.00, 1011.8,    0.0, -999.0
29-11-2022, 00:08:18,    315,    0.0,    3.5,   0.00,   0.00, 1011.8,    0.0, -999.0
29-11-2022, 00:08:28,    315,    0.0,    3.5,   0.00,   0.00, 1011.8,    0.1, -999.0
29-11-2022, 00:08:39,    315,    0.0,    3.4,   0.00,   0.00, 1011.8,    0.0, -999.0
29-11-2022, 00:08:48,    315,    0.0,    3.5,   0.00,   0.00, 1011.8,    0.0, -999.0
29-11-2022, 00:08:58,    315,    0.0,    3.5,   0.00,   0.00, 1011.8,    0.0, -999.0
29-11-2022, 00:09:08,    315,    0.0,    3.4,   0.00,   0.00, 1011.8,    0.0, -999.0
29-11-2022, 00:09:18,    315,    0.0,    3.5,   0.00,   0.00, 1011.8,    0.1, -999.0
29-11-2022, 00:09:28,    315,    0.0,    3.5,   0.00,   0.00, 1011.8,    0.1, -999.0
29-11-2022, 00:09:38,    315,    0.0,    3.5,   0.00,   0.00, 1011.8,    0.0, -999.0
29-11-2022, 00:09:48,    315,    0.0,    3.4,   0.00,   0.00, 1011.8,    0.0, -999.0
29-11-2022, 00:09:58,    313,    0.0,    3.5,   0.00,   0.00, 1011.8,    0.0, -999.0
29-11-2022, 00:10:08,    315,    0.0,    3.5,   0.00,   0.00, 1011.8,    0.1, -999.0
29-11-2022, 00:10:18,    315,    0.0,    3.5,   0.00,   0.00, 1011.8,    0.0, -999.0
29-11-2022, 00:10:28,    315,    0.0,    3.4,   0.00,   0.00, 1011.8,    0.0, -999.0
29-11-2022, 00:10:38,    316,    0.0,    3.4,   0.00,   0.00, 1011.8,    0.0, -999.0
29-11-2022, 00:10:48,    316,    0.0,    3.5,   0.00,   0.00, 1011.8,    0.0, -999.0
29-11-2022, 00:10:58,    315,    0.0,    3.5,   0.00,   0.00, 1011.8,    0.1, -999.0
29-11-2022, 00:11:08,    315,    0.0,    3.4,   0.00,   0.00, 1011.8,    0.0, -999.0
29-11-2022, 00:11:18,    315,    0.0,    3.5,   0.00,   0.00, 1011.8,    0.0, -999.0
29-11-2022, 00:11:28,    315,    0.0,    3.5,   0.00,   0.00, 1011.8,    0.1, -999.0
29-11-2022, 00:11:38,    315,    0.0,    3.5,   0.00,   0.00, 1011.8,    0.0, -999.0
29-11-2022, 00:11:48,    315,    0.0,    3.5,   0.00,   0.00, 1011.8,    0.1, -999.0
29-11-2022, 00:11:58,    315,    0.0,    3.5,   0.00,   0.00, 1011.8,    0.0, -999.0
29-11-2022, 00:12:08,    315,    0.0,    3.5,   0.00,   0.00, 1011.8,    0.0, -999.0
29-11-2022, 00:12:18,    315,    0.0,    3.4,   0.00,   0.00, 1011.8,    0.0, -999.0
29-11-2022, 00:12:28,    315,    0.0,    3.5,   0.00,   0.00, 1011.8,    0.1, -999.0
29-11-2022, 00:12:38,    315,    0.0,    3.5,   0.00,   0.00, 1011.8,    0.1, -999.0
29-11-2022, 00:12:48,    315,    0.0,    3.5,   0.00,   0.00, 1011.8,    0.1, -999.0
29-11-2022, 00:12:58,    315,    0.0,    3.5,   0.00,   0.00, 1011.8,    0.0, -999.0
29-11-2022, 00:13:08,    315,    0.0,    3.5,   0.00,   0.00, 1011.7,    0.0, -999.0
29-11-2022, 00:13:18,    316,    0.0,    3.5,   0.00,   0.00, 1011.8,    0.1, -999.0
29-11-2022, 00:13:28,    315,    0.0,    3.5,   0.00,   0.00, 1011.8,    0.0, -999.0
29-11-2022, 00:13:37,    315,    0.0,    3.6,   0.00,   0.00, 1011.8,    0.0, -999.0
29-11-2022, 00:13:48,    315,    0.0,    3.6,   0.00,   0.00, 1011.7,    0.1, -999.0
29-11-2022, 00:13:58,    315,    0.0,    3.6,   0.00,   0.00, 1011.8,    0.0, -999.0
29-11-2022, 00:14:07,    316,    0.0,    3.7,   0.00,   0.00, 1011.8,    0.1, -999.0
29-11-2022, 00:14:17,    315,    0.0,    3.5,   0.00,   0.00, 1011.8,    0.0, -999.0
29-11-2022, 00:14:28,    315,    0.0,    3.6,   0.00,   0.00, 1011.8,    0.1, -999.0
29-11-2022, 00:14:38,    315,    0.0,    3.6,   0.00,   0.00, 1011.8,    0.0, -999.0
29-11-2022, 00:14:47,    315,    0.0,    3.6,   0.00,   0.00, 1011.8,    0.0, -999.0
29-11-2022, 00:14:57,    315,    0.0,    3.6,   0.00,   0.00, 1011.8,    0.0, -999.0
29-11-2022, 00:15:08,    315,    0.0,    3.6,   0.00,   0.00, 1011.8,    0.0, -999.0
29-11-2022, 00:15:17,    317,    0.0,    3.6,   0.00,   0.00, 1011.8,    0.0, -999.0
29-11-2022, 00:15:27,    315,    0.0,    3.6,   0.00,   0.00, 1011.8,    0.0, -999.0
29-11-2022, 00:15:38,    315,    0.0,    3.7,   0.00,   0.00, 1011.8,    0.0, -999.0
29-11-2022, 00:15:47,    315,    0.0,    3.6,   0.00,   0.00, 1011.8,    0.0, -999.0
29-11-2022, 00:15:57,    315,    0.0,    3.6,   0.00,   0.00, 1011.8,    0.2, -999.0
29-11-2022, 00:16:07,    315,    0.0,    3.6,   0.00,   0.00, 1011.8,    0.0, -999.0
29-11-2022, 00:16:18,    315,    0.0,    3.5,   0.00,   0.00, 1011.8,    0.0, -999.0
29-11-2022, 00:16:27,    315,    0.0,    3.6,   0.00,   0.00, 1011.8,    0.0, -999.0
29-11-2022, 00:16:37,    315,    0.0,    3.6,   0.00,   0.00, 1011.8,    0.0, -999.0
29-11-2022, 00:16:47,    315,    0.0,    3.6,   0.00,   0.00, 1011.8,    0.0, -999.0
29-11-2022, 00:16:57,    315,    0.0,    3.6,   0.00,   0.00, 1011.8,    0.0, -999.0
29-11-2022, 00:17:07,    315,    0.0,    3.6,   0.00,   0.00, 1011.8,    0.1, -999.0
29-11-2022, 00:17:17,    315,    0.0,    3.6,   0.00,   0.00, 1011.8,    0.0, -999.0
29-11-2022, 00:17:27,    315,    0.0,    3.6,   0.00,   0.00, 1011.8,    0.0, -999.0
29-11-2022, 00:17:37,    315,    0.0,    3.6,   0.00,   0.00, 1011.8,    0.0, -999.0
29-11-2022, 00:17:47,    315,    0.0,    3.6,   0.00,   0.01, 1011.8,    0.0, -999.0
29-11-2022, 00:17:57,    315,    0.0,    3.6,   0.00,   0.00, 1011.8,    0.2, -999.0
29-11-2022, 00:18:07,    315,    0.0,    3.6,   0.00,   0.00, 1011.8,    0.0, -999.0
29-11-2022, 00:18:17,    315,    0.0,    3.6,   0.00,   0.00, 1011.8,    0.0, -999.0
29-11-2022, 00:18:27,    315,    0.0,    3.6,   0.00,   0.00, 1011.8,    0.0, -999.0
29-11-2022, 00:18:37,    315,    0.0,    3.6,   0.00,   0.00, 1011.8,    0.0, -999.0
29-11-2022, 00:18:47,    316,    0.0,    3.6,   0.00,   0.00, 1011.8,    0.0, -999.0
29-11-2022, 00:18:57,    315,    0.0,    3.6,   0.00,   0.00, 1011.9,    0.0, -999.0
29-11-2022, 00:19:07,    315,    0.0,    3.7,   0.00,   0.00, 1011.8,    0.0, -999.0
29-11-2022, 00:19:17,    315,    0.0,    3.6,   0.00,   0.00, 1011.8,    0.0, -999.0
29-11-2022, 00:19:27,    315,    0.0,    3.7,   0.00,   0.00, 1011.8,    0.0, -999.0
29-11-2022, 00:19:37,    315,    0.0,    3.6,   0.00,   0.00, 1011.8,    0.0, -999.0
29-11-2022, 00:19:47,    315,    0.0,    3.7,   0.00,   0.00, 1011.8,    0.0, -999.0
29-11-2022, 00:19:57,    315,    0.0,    3.6,   0.00,   0.00, 1011.8,    0.1, -999.0
29-11-2022, 00:20:07,    315,    0.0,    3.7,   0.00,   0.00, 1011.8,    0.0, -999.0
29-11-2022, 00:20:17,    315,    0.0,    3.7,   0.00,   0.00, 1011.8,    0.0, -999.0
29-11-2022, 00:20:27,    315,    0.0,    3.7,   0.00,   0.00, 1011.8,    0.0, -999.0
29-11-2022, 00:20:37,    315,    0.0,    3.8,   0.00,   0.00, 1011.8,    0.1, -999.0
29-11-2022, 00:20:47,    315,    0.0,    3.7,   0.00,   0.00, 1011.8,    0.0, -999.0
29-11-2022, 00:20:57,    316,    0.0,    3.7,   0.00,   0.00, 1011.8,    0.1, -999.0
29-11-2022, 00:21:07,    315,    0.0,    3.7,   0.00,   0.00, 1011.8,    0.0, -999.0
29-11-2022, 00:21:17,    315,    0.0,    3.8,   0.00,   0.00, 1011.9,    0.0, -999.0
29-11-2022, 00:21:26,    315,    0.0,    3.8,   0.00,   0.00, 1011.9,    0.0, -999.0
29-11-2022, 00:21:37,    319,    0.0,    3.7,   0.00,   0.00, 1011.9,    0.0, -999.0
29-11-2022, 00:21:47,    315,    0.0,    3.8,   0.00,   0.00, 1011.9,    0.1, -999.0
29-11-2022, 00:21:56,    316,    0.0,    3.7,   0.00,   0.00, 1011.9,    0.1, -999.0
29-11-2022, 00:22:06,    315,    0.0,    3.7,   0.00,   0.00, 1011.8,    0.0, -999.0
29-11-2022, 00:22:17,    315,    0.0,    3.7,   0.00,   0.00, 1011.8,    0.0, -999.0
29-11-2022, 00:22:27,    315,    0.0,    3.7,   0.00,   0.00, 1011.8,    0.2, -999.0
29-11-2022, 00:22:36,    316,    0.0,    3.7,   0.00,   0.00, 1011.8,    0.1, -999.0
29-11-2022, 00:22:46,    315,    0.0,    3.7,   0.00,   0.00, 1011.8,    0.0, -999.0
29-11-2022, 00:22:57,    315,    0.0,    3.8,   0.00,   0.00, 1011.8,    0.0, -999.0
29-11-2022, 00:23:06,    315,    0.0,    3.8,   0.00,   0.00, 1011.9,    0.0, -999.0
29-11-2022, 00:23:16,    315,    0.0,    3.8,   0.00,   0.00, 1011.8,    0.0, -999.0
29-11-2022, 00:23:26,    315,    0.0,    3.8,   0.00,   0.00, 1011.8,    0.0, -999.0
29-11-2022, 00:23:36,    315,    0.0,    3.7,   0.00,   0.00, 1011.8,    0.0, -999.0
29-11-2022, 00:23:46,    315,    0.0,    3.7,   0.00,   0.00, 1011.9,    0.0, -999.0
29-11-2022, 00:23:56,    315,    0.0,    3.8,   0.00,   0.00, 1011.9,    0.0, -999.0
29-11-2022, 00:24:06,    315,    0.0,    3.7,   0.00,   0.00, 1011.8,    0.0, -999.0
29-11-2022, 00:24:16,    315,    0.0,    3.8,   0.00,   0.00, 1011.9,    0.0, -999.0
29-11-2022, 00:24:26,    316,    0.0,    3.8,   0.00,   0.00, 1011.9,    0.1, -999.0
29-11-2022, 00:24:36,    315,    0.0,    3.8,   0.00,   0.00, 1011.9,    0.0, -999.0
29-11-2022, 00:24:46,    315,    0.1,    3.8,   0.00,   0.00, 1011.9,    0.0, -999.0
29-11-2022, 00:24:56,    316,    0.2,    3.8,   0.00,   0.00, 1011.9,    0.1, -999.0
29-11-2022, 00:25:06,    316,    0.6,    3.8,   0.00,   0.00, 1012.0,    0.0, -999.0
29-11-2022, 00:25:16,    315,    0.1,    3.8,   0.00,   0.00, 1012.0,    0.0, -999.0
29-11-2022, 00:25:26,    315,    0.1,    3.8,   0.00,   0.00, 1012.0,    0.1, -999.0
29-11-2022, 00:25:36,    315,    0.0,    3.8,   0.00,   0.00, 1011.9,    0.1, -999.0
29-11-2022, 00:25:46,    315,    0.0,    3.8,   0.00,   0.00, 1011.9,    0.0, -999.0
29-11-2022, 00:25:56,    315,    0.0,    3.7,   0.00,   0.00, 1011.9,    0.0, -999.0
29-11-2022, 00:26:06,    315,    0.0,    3.8,   0.00,   0.00, 1011.9,    0.1, -999.0
29-11-2022, 00:26:16,    315,    0.0,    3.9,   0.00,   0.00, 1011.9,    0.0, -999.0
29-11-2022, 00:26:26,    315,    0.0,    3.9,   0.00,   0.00, 1011.9,    0.1, -999.0
29-11-2022, 00:26:36,    316,    0.0,    3.8,   0.00,   0.00, 1011.9,    0.0, -999.0
29-11-2022, 00:26:46,    316,    0.0,    3.9,   0.00,   0.00, 1011.9,    0.1, -999.0
29-11-2022, 00:26:56,    315,    0.0,    3.9,   0.00,   0.00, 1011.9,    0.1, -999.0
29-11-2022, 00:27:06,    315,    0.0,    3.8,   0.00,   0.00, 1011.9,    0.0, -999.0
29-11-2022, 00:27:16,    315,    0.0,    3.8,   0.00,   0.00, 1011.9,    0.1, -999.0
29-11-2022, 00:27:26,    315,    0.0,    3.8,   0.00,   0.00, 1011.9,    0.0, -999.0
29-11-2022, 00:27:36,    315,    0.0,    3.8,   0.00,   0.00, 1011.9,    0.1, -999.0
29-11-2022, 00:27:46,    315,    0.0,    3.8,   0.00,   0.00, 1011.9,    0.1, -999.0
29-11-2022, 00:27:56,    315,    0.0,    3.8,   0.00,   0.00, 1011.9,    0.0, -999.0
29-11-2022, 00:28:06,    315,    0.0,    3.9,   0.00,   0.00, 1011.8,    0.1, -999.0
29-11-2022, 00:28:16,    315,    0.0,    3.9,   0.00,   0.00, 1011.9,    0.1, -999.0
29-11-2022, 00:28:26,    315,    0.0,    3.9,   0.00,   0.00, 1011.8,    0.0, -999.0
29-11-2022, 00:28:35,    315,    0.0,    3.9,   0.00,   0.00, 1011.9,    0.1, -999.0
29-11-2022, 00:28:46,    315,    0.0,    3.9,   0.00,   0.00, 1011.9,    0.0, -999.0
29-11-2022, 00:28:56,    315,    0.0,    3.9,   0.00,   0.00, 1011.9,    0.0, -999.0
29-11-2022, 00:29:05,    315,    0.0,    3.9,   0.00,   0.00, 1011.9,    0.1, -999.0
29-11-2022, 00:29:16,    316,    0.1,    4.0,   0.00,   0.00, 1012.0,    0.0, -999.0
29-11-2022, 00:29:26,    315,    0.3,    4.0,   0.00,   0.00, 1012.1,    0.0, -999.0
29-11-2022, 00:29:36,    315,    0.2,    4.0,   0.00,   0.00, 1012.0,    0.1, -999.0
29-11-2022, 00:29:45,    315,    0.0,    3.9,   0.00,   0.00, 1012.0,    0.2, -999.0
29-11-2022, 00:29:56,    315,    0.0,    3.8,   0.00,   0.00, 1011.9,    0.0, -999.0
29-11-2022, 00:30:06,    315,    0.0,    3.8,   0.00,   0.00, 1011.9,    0.0, -999.0
29-11-2022, 00:30:15,    316,    0.0,    3.8,   0.00,   0.00, 1012.0,    0.0, -999.0
29-11-2022, 00:30:25,    315,    0.0,    3.8,   0.00,   0.00, 1011.9,    0.0, -999.0
29-11-2022, 00:30:36,    315,    0.0,    3.8,   0.00,   0.00, 1011.9,    0.0, -999.0
29-11-2022, 00:30:45,    315,    0.0,    3.7,   0.00,   0.00, 1011.9,    0.0, -999.0
29-11-2022, 00:30:55,    315,    0.0,    3.8,   0.00,   0.00, 1011.9,    0.1, -999.0
29-11-2022, 00:31:05,    315,    0.0,    3.8,   0.00,   0.00, 1011.9,    0.0, -999.0
29-11-2022, 00:31:16,    315,    0.0,    3.8,   0.00,   0.00, 1011.9,    0.0, -999.0
29-11-2022, 00:31:25,    316,    0.0,    3.8,   0.00,   0.00, 1011.9,    0.1, -999.0
29-11-2022, 00:31:35,    315,    0.0,    3.9,   0.00,   0.00, 1011.9,    0.0, -999.0
29-11-2022, 00:31:45,    315,    0.0,    3.9,   0.00,   0.00, 1011.9,    0.0, -999.0
29-11-2022, 00:31:55,    316,    0.3,    3.9,   0.00,   0.00, 1012.0,    0.0, -999.0
29-11-2022, 00:32:05,    315,    0.3,    3.9,   0.00,   0.00, 1012.0,    0.0, -999.0
29-11-2022, 00:32:15,    315,    0.5,    3.9,   0.00,   0.00, 1012.1,    0.2, -999.0
29-11-2022, 00:32:25,    315,    0.1,    3.9,   0.00,   0.00, 1012.0,    0.1, -999.0
29-11-2022, 00:32:35,    315,    0.1,    3.9,   0.00,   0.00, 1012.0,    0.0, -999.0
29-11-2022, 00:32:45,    315,    0.0,    3.9,   0.00,   0.00, 1012.0,    0.0, -999.0
29-11-2022, 00:32:55,    315,    0.0,    3.9,   0.00,   0.00, 1012.0,    0.0, -999.0
29-11-2022, 00:33:05,    315,    0.0,    3.8,   0.00,   0.00, 1011.9,    0.1, -999.0
29-11-2022, 00:33:15,    315,    0.0,    3.8,   0.00,   0.00, 1012.0,    0.1, -999.0
29-11-2022, 00:33:25,    315,    0.0,    3.9,   0.00,   0.00, 1012.0,    0.0, -999.0
29-11-2022, 00:33:35,    315,    0.0,    3.9,   0.00,   0.00, 1012.0,    0.0, -999.0
29-11-2022, 00:33:45,    316,    0.0,    4.0,   0.00,   0.00, 1012.0,    0.0, -999.0
29-11-2022, 00:33:55,    315,    0.0,    3.9,   0.00,   0.00, 1012.0,    0.0, -999.0
29-11-2022, 00:34:05,    315,    0.0,    3.9,   0.00,   0.00, 1012.0,    0.1, -999.0
29-11-2022, 00:34:15,    315,    0.0,    3.9,   0.00,   0.00, 1011.9,    0.1, -999.0
29-11-2022, 00:34:25,    348,    0.1,    4.0,   0.00,   0.00, 1012.0,    0.1, -999.0
29-11-2022, 00:34:35,    337,    1.1,    4.1,   0.00,   0.00, 1012.1,    0.0, -999.0
29-11-2022, 00:34:45,    337,    0.2,    3.9,   0.00,   0.00, 1012.0,    0.0, -999.0
29-11-2022, 00:34:55,    337,    0.6,    4.1,   0.00,   0.00, 1012.1,    0.0, -999.0
29-11-2022, 00:35:05,    337,    0.1,    4.1,   0.00,   0.00, 1012.0,    0.0, -999.0
29-11-2022, 00:35:15,    337,    0.0,    4.1,   0.00,   0.00, 1012.0,    0.1, -999.0
29-11-2022, 00:35:25,    330,    0.6,    4.1,   0.00,   0.00, 1012.1,    0.1, -999.0
29-11-2022, 00:35:35,    329,    0.7,    4.1,   0.00,   0.00, 1012.1,    0.1, -999.0
29-11-2022, 00:35:45,    329,    0.0,    4.0,   0.00,   0.00, 1012.0,    0.0, -999.0
29-11-2022, 00:35:55,    330,    0.1,    4.1,   0.00,   0.00, 1012.0,    0.0, -999.0
29-11-2022, 00:36:05,    330,    0.1,    4.1,   0.00,   0.00, 1012.1,    0.0, -999.0
29-11-2022, 00:36:14,    329,    0.4,    4.1,   0.00,   0.00, 1012.1,    0.1, -999.0
29-11-2022, 00:36:25,    329,    0.7,    4.2,   0.00,   0.00, 1012.1,    0.0, -999.0
29-11-2022, 00:36:35,    329,    0.6,    4.1,   0.00,   0.00, 1012.1,    0.2, -999.0
29-11-2022, 00:36:44,    329,    0.2,    4.0,   0.00,   0.00, 1012.1,    0.1, -999.0
29-11-2022, 00:36:54,    329,    0.0,    4.1,   0.00,   0.00, 1012.0,    0.1, -999.0
29-11-2022, 00:37:05,    330,    0.0,    4.0,   0.00,   0.00, 1012.0,    0.0, -999.0
29-11-2022, 00:37:14,    329,    0.1,    4.1,   0.00,   0.00, 1012.0,    0.0, -999.0
29-11-2022, 00:37:24,    329,    0.4,    4.1,   0.00,   0.00, 1012.1,    0.1, -999.0
29-11-2022, 00:37:35,    329,    0.1,    4.1,   0.00,   0.00, 1012.0,    0.0, -999.0
29-11-2022, 00:37:45,    329,    0.0,    4.1,   0.00,   0.00, 1012.0,    0.0, -999.0
29-11-2022, 00:37:54,    329,    0.0,    4.1,   0.00,   0.00, 1011.9,    0.1, -999.0
29-11-2022, 00:38:04,    329,    0.0,    4.0,   0.00,   0.00, 1012.0,    0.0, -999.0
29-11-2022, 00:38:15,    329,    0.0,    4.1,   0.00,   0.00, 1012.0,    0.1, -999.0
29-11-2022, 00:38:24,    329,    0.0,    4.1,   0.00,   0.00, 1012.0,    0.2, -999.0
29-11-2022, 00:38:34,    329,    0.0,    4.1,   0.00,   0.00, 1011.9,    0.0, -999.0
29-11-2022, 00:38:44,    329,    0.0,    4.1,   0.00,   0.00, 1011.9,    0.1, -999.0
29-11-2022, 00:38:54,    329,    0.0,    4.1,   0.00,   0.00, 1012.0,    0.1, -999.0
29-11-2022, 00:39:04,    329,    0.0,    4.1,   0.00,   0.00, 1012.0,    0.1, -999.0
29-11-2022, 00:39:14,    329,    0.0,    4.2,   0.00,   0.00, 1012.0,    0.0, -999.0
29-11-2022, 00:39:24,    330,    0.0,    4.1,   0.00,   0.00, 1011.9,    0.1, -999.0
29-11-2022, 00:39:34,    329,    0.0,    4.1,   0.00,   0.00, 1012.0,    0.0, -999.0
29-11-2022, 00:39:44,    330,    0.0,    4.1,   0.00,   0.00, 1012.0,    0.1, -999.0
29-11-2022, 00:39:54,    330,    0.6,    4.3,   0.00,   0.00, 1012.1,    0.1, -999.0
29-11-2022, 00:40:04,    329,    0.1,    4.2,   0.00,   0.00, 1012.0,    0.0, -999.0
29-11-2022, 00:40:14,    330,    0.0,    4.2,   0.00,   0.00, 1011.9,    0.0, -999.0
29-11-2022, 00:40:24,    329,    0.0,    4.3,   0.00,   0.00, 1012.0,    0.0, -999.0
29-11-2022, 00:40:34,    329,    0.0,    4.3,   0.00,   0.00, 1012.0,    0.1, -999.0
29-11-2022, 00:40:44,    329,    0.0,    4.1,   0.00,   0.00, 1011.9,    0.0, -999.0
29-11-2022, 00:40:54,    330,    0.0,    4.2,   0.00,   0.00, 1012.0,    0.0, -999.0
29-11-2022, 00:41:04,    330,    0.0,    4.2,   0.00,   0.00, 1011.9,    0.1, -999.0
29-11-2022, 00:41:14,    329,    0.0,    4.2,   0.00,   0.00, 1011.9,    0.0, -999.0
29-11-2022, 00:41:24,    329,    0.0,    4.2,   0.00,   0.00, 1011.9,    0.0, -999.0
29-11-2022, 00:41:34,    329,    0.0,    4.1,   0.00,   0.00, 1011.9,    0.1, -999.0
29-11-2022, 00:41:44,    329,    0.0,    4.1,   0.00,   0.00, 1012.0,    0.0, -999.0
29-11-2022, 00:41:54,    329,    0.0,    4.1,   0.00,   0.00, 1012.0,    0.0, -999.0
29-11-2022, 00:42:04,    330,    0.0,    4.1,   0.00,   0.00, 1012.0,    0.1, -999.0
29-11-2022, 00:42:14,    329,    0.0,    4.1,   0.00,   0.00, 1012.0,    0.0, -999.0
29-11-2022, 00:42:24,    329,    0.0,    4.1,   0.00,   0.00, 1012.0,    0.1, -999.0
29-11-2022, 00:42:34,    329,    0.0,    4.1,   0.00,   0.00, 1012.0,    0.0, -999.0
29-11-2022, 00:42:44,    329,    0.0,    4.1,   0.00,   0.00, 1011.9,    0.1, -999.0
29-11-2022, 00:42:54,    330,    0.0,    4.1,   0.00,   0.00, 1012.0,    0.2, -999.0
29-11-2022, 00:43:04,    329,    0.0,    4.1,   0.00,   0.00, 1011.9,    0.3, -999.0
29-11-2022, 00:43:14,    330,    0.0,    4.1,   0.00,   0.00, 1011.9,    0.0, -999.0
29-11-2022, 00:43:24,    329,    0.0,    4.2,   0.00,   0.00, 1011.9,    0.0, -999.0
29-11-2022, 00:43:34,    329,    0.0,    4.2,   0.00,   0.00, 1012.0,    0.0, -999.0
29-11-2022, 00:43:44,    330,    0.0,    4.2,   0.00,   0.00, 1011.9,    0.1, -999.0
29-11-2022, 00:43:53,    329,    0.0,    4.2,   0.00,   0.00, 1011.9,    0.0, -999.0
29-11-2022, 00:44:04,    330,    0.0,    4.2,   0.00,   0.00, 1011.9,    0.0, -999.0
29-11-2022, 00:44:14,    329,    0.0,    4.2,   0.00,   0.00, 1012.0,    0.1, -999.0
29-11-2022, 00:44:23,    329,    0.0,    4.2,   0.00,   0.00, 1012.0,    0.0, -999.0
29-11-2022, 00:44:33,    329,    0.0,    4.2,   0.00,   0.00, 1012.0,    0.0, -999.0
29-11-2022, 00:44:44,    329,    0.0,    4.2,   0.00,   0.00, 1011.9,    0.0, -999.0
29-11-2022, 00:44:54,    329,    0.0,    4.2,   0.00,   0.00, 1012.0,    0.0, -999.0
29-11-2022, 00:45:03,    330,    0.0,    4.2,   0.00,   0.00, 1012.0,    0.0, -999.0
29-11-2022, 00:45:13,    329,    0.0,    4.2,   0.00,   0.00, 1012.0,    0.0, -999.0
29-11-2022, 00:45:24,    329,    0.0,    4.3,   0.00,   0.00, 1012.0,    0.0, -999.0
29-11-2022, 00:45:33,    329,    0.0,    4.2,   0.00,   0.00, 1012.0,    0.1, -999.0
29-11-2022, 00:45:43,    330,    0.0,    4.2,   0.00,   0.00, 1012.0,    0.0, -999.0
29-11-2022, 00:45:53,    328,    0.0,    4.2,   0.00,   0.00, 1011.9,    0.0, -999.0
29-11-2022, 00:46:03,    329,    0.0,    4.2,   0.00,   0.00, 1012.0,    0.0, -999.0
29-11-2022, 00:46:13,    329,    0.0,    4.2,   0.00,   0.00, 1012.0,    0.0, -999.0
29-11-2022, 00:46:23,    330,    0.0,    4.1,   0.00,   0.00, 1012.0,    0.1, -999.0
29-11-2022, 00:46:33,    329,    0.0,    4.2,   0.00,   0.00, 1012.0,    0.0, -999.0
29-11-2022, 00:46:43,    330,    0.0,    4.2,   0.00,   0.00, 1012.0,    0.0, -999.0
29-11-2022, 00:46:53,    329,    0.1,    4.2,   0.00,   0.00, 1012.0,    0.1, -999.0